STARLINK-1305, 45377

Orbit data source: Space-Track

STARLINK-1305, 45377 is a payload satellite owned by SpaceX/Seattle (US) in LEO that was launched on Wed, 18 Mar 2020 UTC via an FALCON 9 launch vehicle from the Air Force Eastern Test Range (AFETR). Payloads include a variety of satellites, spacecraft, and rockets equipped with specific instruments for various scientific and technological missions. These include communications satellites like Starlink; space stations such as the ISS; scientific satellites like the Hubble; Earth observation satellites from companies like Planet Labs, Umbra, and HawkEye 360; GPS; miniature CubeSats for education and research; and military/defense satellites.

Loading next visibility...
STARLINK-1305 details
Identifier
45377, 2020-019T
Orbit
LEO
Last TLE update23 hours ago
Origin
Flag of USSpaceX/Seattle (US)
ManufacturerSpaceX/Seattle
MissionOperational Commercial Communications
Bus & MotorSTARLINK, Unknown motor
Mass260 kg wet, ~248 kg dry
Launch date (UTC)
2020-03-18 (5 years ago)
Launch vehicle
FALCON 9
Launch site
Air Force Eastern Test Range (AFETR)
Object type
Payload
Rocket body
Debris
Shape & HBRBox + 1 Pan, 8.86 m
Radar Cross Section13.562 m², Large (>1 m²)

Expand to show TLE details & history

TLE from 23 hours ago
0 STARLINK-1305
1 45377U 20019T   24360.47185024  .00011982  00000-0  82210-3 0  9991
2 45377  53.0548 338.3442 0001430  91.3480 268.7672 15.06391880263531
Epoch: 2024-12-25T11:19Z
Definitive object data (Epoch: 2024-12-25T11:19:27.86Z)
Latitude-0.0001°
Longitude74.01293°
Altitude548.137 km
Speed7.589 km/s
True Right ascension22h 33m 22s
True Declination0° 00' 00"
Sunlit
Object was in daylight at TLE epoch
Visualization TLE readout
Latitude-7.81409°
Longitude-104.42345°
Altitude549.481 km
Speed7.588 km/s
Apparent Right ascension12h 29m 27s
Apparent Declination-64° 50' 43"
Sunlit
Object is in daylight
Visualization observer readout
Local Sidereal Time09:48:29
Azimuth163.076° S
Elevation-19.387°
Doppler factor1
Orbital elements
Apogee altitude548.497 km
Perigee altitude546.517 km
Semi-major axis6,925.644 km
Eccentricity0.000143
Inclination53.0548°
RAAN338.3442°
Arg. of periapsis91.348°
True anomaly268.75082°
Mean anomaly268.7672°
Eccentric anomaly268.75901°
Mean motion3.76576 °/min
BSTAR0.0008221
Orbital period95.6 mins
Loading maneuver chart data...
Loading historical data...
Loading historical data...
Loading historical data...
Loading historical data...
Loading historical data...
Loading historical data...
Loading historical data...

STARLINK-1305 Visibility forecast

Observer location: undefined°, undefined

Span
Click to sort rows by Start time (UTC) header in descending order
Start Az.
Max El. time (UTC)
Max El. Az.
Max El.
End time (UTC)
End Az.
5 mins2024-12-27 00:06:18.149Z170.131° S2024-12-27 00:08:18.149Z133.777° SE20.773°2024-12-27 00:11:18.149Z81.053° E
6 mins2024-12-27 01:45:18.149Z255.963° W2024-12-27 01:47:18.149Z298.807° NW36.661°2024-12-27 01:51:18.149Z40.38° NE
5 mins2024-12-27 06:47:18.149Z338.912° N2024-12-27 06:49:18.149Z20.145° NNE25.67°2024-12-27 06:52:18.149Z81.804° E
6 mins2024-12-27 08:26:18.149Z295.524° NW2024-12-27 08:29:18.149Z221.494° SW37.195°2024-12-27 08:32:18.149Z154.102° SSE
|